Location: Newark
(21.1200°N, 73.4000°E)
Time: 03:26:26
(UTC+00:00)

Explorer 11/Cluster Stage 4 - Pass Details

Date: 29 January 2020
Orbit: 467 x 1259 km, 28.8° (Epoch: 18 February)

Event Time Altitude Azimuth Distance (km) Brightness Sun altitude
Rises 09:30:02 0° 283° (WNW) 4,158 10.6 39.4°
Reaches altitude 10° 09:33:04 10° 288° (WNW) 3,222 10.1 39.0°
Maximum altitude 09:41:01 49° 2° (N) 1,553 8.2 37.7°
Drops below altitude 10° 09:48:31 10° 75° (ENE) 3,046 9.3 36.5°
Sets 09:51:18 0° 81° (E) 3,917 9.8 36.0°
